Regional Weather Roundup
Issued by NWS

Home | Current Version | Previous Version | Text Only | Print | Product List | Glossary On
Versions: 1 2 3 4 5 6 7 8 9 10 11 12 13 14 15 16 17 18 19 20 21 22 23 24 25 26 27 28 29 30 31 32 33 34 35 36 37 38 39 40 41 42 43 44 45 46 47 48 49 50
000
ASUS43 KDTX 261410
RWRMI
MICHIGAN HOURLY REGIONAL WEATHER ROUNDUP
NATIONAL WEATHER SERVICE DETROIT/PONTIAC MI
1000 AM EDT SUN MAR 26 2017

NOTE: "FAIR" INDICATES FEW OR NO CLOUDS BELOW 12,000 FEET WITH NO
SIGNIFICANT WEATHER AND/OR OBSTRUCTION TO VISIBILITY.

MIZ047>049-052>055-059>063-066>070-074>076-081>083-261500-
SOUTHEAST LOWER MICHIGAN

CITY           SKY/WX    TMP DP  RH WIND       PRES   REMARKS
ADRIAN         CLOUDY    41  38  89 SE8       30.00S
ALMA           CLOUDY    38  38  99 NE8       30.01F FOG     WCI  33
ANN ARBOR      CLOUDY    41  39  93 E7        30.01S
BAD AXE        CLOUDY    38  36  90 SE9       30.04F WCI  32
CARO           CLOUDY    40  37  88 SE6       30.02F
DETROIT CITY   PTSUNNY   42  38  85 E15       30.02F
DETROIT        CLOUDY    44  38  79 E5        30.01F
FLINT          CLOUDY    43  40  89 SE6       30.01F
GROSSE ILE     CLOUDY    42  38  86 E8        30.00F
HILLSDALE      CLOUDY    41  37  87 E7        29.96S FOG
HOWELL         CLOUDY    42  39  88 SE8       29.99F

CITY           SKY/WX    TMP DP  RH WIND       PRES   REMARKS
JACKSON        CLOUDY    43  39  86 E8        29.97F
LAMBERTVILLE   CLOUDY    41  38  89 E6        30.00S
LANSING        CLOUDY    42  38  85 E8        29.99F
LAPEER         CLOUDY    41  38  92 SE10G16   30.02F
MASON          CLOUDY    42  40  92 SE3       29.98F
MONROE         CLOUDY    41  39  93 NE6       29.99F
MT. CLEMENS    PTSUNNY   40  40  99 E6        30.01F
PONTIAC        CLOUDY    41  37  86 E10       29.99F
PORT HOPE        N/A     35  33  92 E10       30.04F WCI  27
PORT HURON     PTSUNNY   41  37  87 E8        30.04F
TRI CITIES     CLOUDY    40  37  89 E7        30.03F
MIDLAND        CLOUDY    38  36  91 NE6       30.01F WCI  34
TROY           CLOUDY    41  37  84 E8        30.04F
SAGINAW HB     CLOUDY    39  36  87 NE8       30.02F WCI  34
$$
MIZ043>046-050>051-056>058-064>065-071>073-077>080-261500-
SOUTHWEST LOWER MICHIGAN

CITY           SKY/WX    TMP DP  RH WIND       PRES   REMARKS
BATTLE CREEK   LGT RAIN  43  42  97 E6        29.95F FOG
BENTON HARBOR  LGT RAIN  49  46  90 E9        29.90F FOG
BIG RAPIDS     LGT SNOW  37  35  94 E7        29.98F WCI  31
COLDWATER      LGT RAIN  44  43  99 E9        29.94F
FREMONT        LGT RAIN  39  38  99 E7        29.95F WCI  34
HOLLAND        CLOUDY    44  42  93 E12       29.93F FOG
GRAND RAPIDS   CLOUDY    39  37  92 E10       29.96F FOG     WCI  32
IONIA          DRIZZLE   38  38  98 E7        29.97F WCI  33
KALAMAZOO      LGT RAIN  45  42  89 E7        29.95F FOG
LUDINGTON      MIX PCPN  39  39  99 E13       29.94F WCI  32
MARSHALL       LGT RAIN  43  42  98 E5        29.95F
MOUNT PLEASANT CLOUDY    37  35  96 E7        30.01F FOG     WCI  31
MUSKEGON       LGT RAIN  43  41  93 E12       29.94F FOG
SOUTH HAVEN    DRIZZLE   46  45  98 SE7       29.92S
$$
MIZ016>042-261500-
NORTHERN LOWER MICHIGAN

CITY           SKY/WX    TMP DP  RH WIND       PRES   REMARKS
ALPENA         LGT RAIN  35  34  96 E10       30.08F WCI  27
BEAVER ISLAND  MIX PCPN  32  32 100 E8        30.02F WCI  25
BELLAIRE       CLOUDY    39  36  89 CALM      30.01F
CADILLAC       DRIZZLE   35  34  96 E9        29.98S WCI  28
CHARLEVOIX     CLOUDY    36  36 100 E10       30.04S WCI  28
FRANKFORT      CLOUDY    40  37  88 E6        29.96F
GAYLORD        LGT RAIN  35  31  85 SE9       30.01F FOG     WCI  28
GRAYLING       LGT RAIN  36  34  93 E8        30.02S WCI  29
HARBOR SPRINGS MIX PCPN  33  33  99 E12       30.03F WCI  25
HOUGHTON LAKE  CLOUDY    36  34  92 E6        30.02F WCI  31
MANISTEE       LGT RAIN  40  38  93 E8        29.95F WCI  34
OSCODA         CLOUDY    37  35  93 E6        30.07F WCI  32
PELLSTON       CLOUDY    33  31  92 E10       30.05F WCI  25
ROGERS CITY    CLOUDY    34  32  94 E7          N/A  WCI  28
TRAVERSE CITY  CLOUDY    40  36  86 SE5       29.98F
$$
MIZ007>008-015-261500-
EASTERN UPPER MICHIGAN

CITY           SKY/WX    TMP DP  RH WIND       PRES   REMARKS
KINROSS        MIX PCPN  31  29  92 E18G24    30.08F WCI  19
MACKINAC ISLAN FLURRIES  32  32 100 E17G25    30.06F WCI  21
NEWBERRY       CLOUDY    32  31  97 E8        30.04F FOG     WCI  25
S. S. MARIE    FRZ RAIN  32  29  88 E10G20    30.09F FOG     WCI  24
MUNISING         N/A     34  32  92 CALM      30.02F
$$
MIZ004>006-011>014-085-261500-
CENTRAL UPPER MICHIGAN

CITY           SKY/WX    TMP DP  RH WIND       PRES   REMARKS
MANISTIQUE     CLOUDY    32  32 100 E9        30.02F FOG     WCI  24
ESCANABA       CLOUDY    33  33 100 NE9       30.01F FOG     WCI  25
MENOMINEE        N/A    N/A N/A N/A MISG        N/A
SAWYER-GWINN   FOG       32  30  93 CALM      30.00  VSB 3/4
$$
MIZ001>003-009>011-084-261500-
WESTERN UPPER MICHIGAN

CITY           SKY/WX    TMP DP  RH WIND       PRES   REMARKS
IRON MOUNTAIN  FOG       32  30  92 VRB3      29.97S VSB 1/4
HOUGHTON       FOG       32  30  92 E9        30.00S VSB<1/4 WCI  24
COPPER HARBOR    N/A     33  31  92 VRB5      30.02F WCI  29
IRONWOOD       CLOUDY    34  32  92 CALM      29.97F FOG
$$

ABBREVIATIONS USED IN REMARKS
   TC - TEMPERATURE IN CELSIUS
  WCI - WIND CHILL INDEX
   HX - HEAT INDEX
  VSB - VISIBILITY





USA.gov is the U.S. government's official web portal to all federal, state and local government web resources and services.